sat.trackr.live / text

‹ back to catalog

STARLINK-5387

NORAD 54842 · 2022-177Y

PAYLOAD ACTIVE UNKNOWN

§ Identity

Operator
Country
US
Launch date
2022-12-28
Launch site
AFETR
Launch vehicle
Mass (kg)
RCS (m²)

Purposes: comms

External: N2YO · Heavens-Above · Gunter

§ Orbital elements

Epoch: 2026-05-25T04:41:08.226240Z

Period
94.27 min
Inclination
43.0032°
Eccentricity
0.0000918
Mean motion
15.27577596 rev/d
Perigee alt
482.4 km
Apogee alt
483.7 km
Semi-major
6,861.2 km
B*
1.6894e-5
RAAN
60.6011°
Arg perigee
252.9299°
Mean anomaly
107.1452°
Rev number
18,866

§ Raw data

STARLINK-53871 54842U 22177Y   26145.19523410  .00000203  00000+0  16894-4 0  99912 54842  43.0032  60.6011 0000918 252.9299 107.1452 15.27577596188660

JSON: /api/v1/satellites/54842 · /tle

For live sub-satellite position, see the globe view (requires WebGL).

§ Visibility from observer

Set your observer location to see the next 7 days of passes ≥ 10°. The values pass through the URL so the page stays shareable.

No JS? Fill the form by hand. The geolocation button needs JavaScript.